OPS 4682 DEB, 38414

Orbit data source: Space-Track

OPS 4682 DEB, 38414 is space debris in LEO originally from a launch on Sat, 03 Apr 1965 UTC launched from the Air Force Western Test Range (AFWTR). Debris objects in space refer to the collection of defunct objects orbiting the Earth. Examples of debris include non-operational satellites, rocket bodies, and fragments generated from explosions, collisions, or faulty payload assembly.

Loading next visibility...
Identifier
38414, 1965-027DT
Orbit
LEO
Country
Flag of USUS
Related business
Manufacturer
Unknown
Mission
Spacecraft
Bus & Motor
Unknown
Mass
Unknown
Launch date (UTC)
1965-04-03 (61 years ago)
Launch vehicle
Unknown
Launch site
Air Force Western Test Range (AFWTR)
Object type
Payload
Rocket body
Debris
Shape & HBR
Unknown shape, 0.1 m
Radar Cross Section
Small (<0.1 m²)

Expand to show TLE details & history
Last TLE update: 1 week ago

TLE from 1 week ago
0 OPS 4682 DEB
1 38414U 65027DT  26029.58886933  .00000143  00000-0  46125-3 0  9998
2 38414  90.2361 349.4067 0040292 111.7980 248.7436 12.98014548122821
Epoch: 2026-01-29T14:07Z
TLE epoch observation values (Epoch: 2026-01-29T14:07:58.310Z)
Latitude
0.00007°
Longitude
8.57434°
Altitude
1,284.038 km
Speed
7.209 km/s
True Right ascension
23h 17m 37s
True Declination
0° 00' 00"
Sunlit
Object was in daylight at epoch
Visualization orbit readout
Latitude
Unknown
Longitude
Unknown
Altitude
Unknown
Speed
Unknown
Apparent Right ascension
Unknown
Apparent Declination
Unknown
Sunlit
N/A
Visualization observer readout
Local Sidereal Time
11:57:00
Azimuth
Unknown
Elevation
Unknown
Doppler factor
Unknown
Orbital elements
Apogee altitude
1,297.809 km
Perigee altitude
1,236.202 km
Semi-major axis
7,645.143 km
Eccentricity
0.00403
Inclination
90.2361°
RAAN
349.4067°
Arg. of periapsis
111.798°
True anomaly
248.31409°
Mean anomaly
248.7436°
Eccentric anomaly
248.52876°
Mean motion
3.24687 °/min
Orbital period
110.88 mins
BSTAR
0.00046125
Loading maneuver chart data...
Computing Atmospheric mass density...
Loading historical data...
Loading historical data...
Loading historical data...
Loading historical data...
Loading historical data...
Loading historical data...
Loading historical data...

Documentation

Showing up to 5 results
|